Theta_e
296 296 296 296 295 293 294 294 295 294 293 291 292 293 293 293 293 296 296 295 296 298 295 295 296 297 296 297 300 298 299 299 300 301 300 301 300 300 300 301 300 300 301 305 306 306 306 304 305 307 308 307 308 308
297 296 296 295 295 293 293 295 294 294 293 290 292 292 292 293 292 295 296 294 293 296 297 295 295 295 296 296 297 297 298 298 299 300 300 300 300 300 300 301 301 302 302 303 302 304 304 304 305 305 305 306 306 306
296 296 296 296 295 295 294 294 294 293 293 290 291 290 291 291 292 295 296 295 295 296 296 296 296 296 294 295 295 296 297 296 296 297 299 300 300 300 300 300 300 301 301 304 302 303 303 303 304 304 304 305 305 306
296 296 296 296 296 295 294 295 295 294 294 293 291 291 292 293 293 295 296 295 295 295 297 297 296 296 296 295 295 295 295 296 296 296 297 299 299 298 299 299 300 300 300 300 301 302 301 301 302 302 302 306 306 306
294 295 296 296 296 295 294 294 295 295 295 294 292 292 293 294 294 294 295 295 295 296 297 296 296 295 295 295 295 295 295 295 295 297 297 298 296 298 297 298 299 297 299 301 302 299 300 300 298 300 302 305 306 306
295 295 295 295 296 295 295 294 294 295 295 295 295 294 295 295 294 295 294 295 295 295 294 296 296 295 295 295 295 295 295 295 295 296 296 296 295 296 298 300 297 296 296 296 298 297 297 298 300 301 303 304 306 306
293 294 295 294 295 295 296 296 295 295 295 296 295 295 295 294 294 294 295 295 294 294 293 296 297 297 296 296 296 296 295 295 295 296 296 296 296 296 299 299 296 296 296 297 297 297 298 300 298 303 304 305 305 305
293 294 294 294 294 295 295 295 295 295 295 294 294 294 292 291 292 293 293 292 292 293 293 296 297 298 298 297 296 296 296 295 295 296 296 296 296 296 298 297 296 296 296 296 296 297 297 297 300 303 304 305 305 304
293 293 293 294 294 294 294 294 293 292 291 290 290 289 291 291 292 292 292 293 293 292 296 296 297 299 298 298 297 294 296 298 296 297 297 296 298 298 297 296 296 296 297 297 298 299 300 301 303 303 303 303 303 303
292 292 293 293 293 293 292 290 289 289 289 288 290 292 293 293 294 294 294 294 292 293 294 297 297 299 298 298 299 298 297 298 298 298 296 299 300 297 297 297 297 297 298 300 301 303 303 303 303 302 302 301 302 303
292 292 292 292 291 290 289 289 289 288 288 292 293 294 295 294 295 295 296 296 296 298 297 297 296 298 298 300 299 299 300 300 300 301 299 300 300 301 299 298 298 298 299 300 301 302 302 301 301 301 302 303 303 303
292 292 290 289 288 289 288 288 288 290 292 293 294 294 294 295 296 296 297 296 297 297 297 297 298 297 298 298 299 299 300 300 300 299 301 301 302 300 300 301 300 300 301 301 301 301 301 301 302 302 304 303 302 300
290 289 287 287 288 290 289 289 289 291 293 294 294 295 296 295 296 296 296 296 297 297 297 298 299 298 297 297 298 299 299 300 300 300 301 301 302 301 301 301 301 301 301 301 302 300 301 302 303 302 302 300 300 299
292 290 287 287 289 288 288 288 289 293 293 295 295 296 296 296 296 297 297 298 298 298 298 298 299 298 298 297 297 298 300 299 301 301 301 303 303 301 300 300 300 298 299 300 300 300 301 300 300 300 300 299 298 298
293 291 289 289 289 288 287 288 292 293 294 295 294 295 296 296 297 297 297 298 298 298 298 298 298 299 300 297 297 298 298 300 301 302 304 303 301 300 299 298 297 298 298 297 297 297 297 298 298 298 297 297 296 296
292 291 291 291 290 287 287 290 292 293 294 294 294 295 295 296 298 297 296 297 298 297 296 298 299 300 300 300 298 299 299 300 303 305 303 301 300 298 298 297 296 296 296 296 296 296 297 296 296 296 296 295 294 294
292 292 291 290 290 288 290 293 293 293 294 294 295 294 295 296 297 298 298 298 298 297 298 299 300 300 301 300 300 301 302 304 303 302 300 298 298 298 297 296 295 295 294 294 295 295 295 295 294 294 294 293 292 292
291 292 292 290 289 290 292 292 293 294 295 294 295 296 296 295 296 297 298 297 297 297 298 300 298 301 301 301 301 303 302 300 298 299 298 297 298 297 297 296 295 294 294 294 294 294 293 293 292 292 290 290 291 290
293 294 294 293 290 292 293 293 293 296 295 296 296 296 297 297 297 296 296 297 297 297 296 298 299 301 301 301 302 301 300 301 300 298 296 295 296 297 296 296 295 294 293 292 292 292 292 292 291 290 289 288 289 288
288 288 291 292 291 292 293 294 293 295 296 297 296 297 297 298 298 297 297 297 297 297 297 298 299 301 301 300 300 301 300 299 299 298 297 296 295 294 294 295 294 293 292 292 292 291 290 290 289 289 288 288 288 287
288 291 289 291 292 292 293 295 295 294 296 297 297 297 297 298 297 298 298 297 297 297 298 298 298 299 298 297 297 298 298 298 299 299 299 298 296 293 293 293 293 292 292 292 291 290 289 289 289 288 287 287 286 286
292 291 292 291 293 293 293 294 295 296 296 297 297 297 297 298 298 297 297 297 297 297 297 298 298 298 298 298 298 297 298 297 297 297 295 295 295 293 292 292 292 292 291 291 291 290 289 289 288 287 287 286 286 286
289 291 292 292 292 293 293 294 294 295 296 297 296 297 297 297 297 296 297 297 297 298 298 297 297 296 296 296 296 296 296 296 297 297 296 296 295 294 293 292 292 291 291 292 291 290 289 288 288 287 287 286 286 286
289 290 291 293 293 293 292 293 293 294 295 295 295 295 295 296 296 296 296 296 297 296 295 295 295 296 296 296 296 296 295 295 295 295 294 295 294 294 294 293 293 292 291 291 290 290 289 288 288 287 286 286 286 286
290 290 291 293 292 293 293 293 294 294 294 295 294 295 296 295 296 295 296 296 297 295 294 294 295 295 295 296 296 295 294 294 294 294 294 294 294 294 294 293 292 292 291 291 291 290 290 289 288 288 287 287 287 286
290 290 291 292 292 292 293 293 293 293 293 293 294 294 295 295 295 295 295 296 296 293 291 292 295 294 294 294 294 294 294 294 293 293 293 293 292 293 293 292 293 292 292 291 291 290 290 290 289 288 288 288 287 287
291 292 289 289 291 291 292 291 291 292 292 293 294 294 295 294 294 294 294 295 294 293 293 292 291 293 292 292 293 293 292 292 293 293 292 292 291 292 292 292 292 292 292 292 291 291 291 290 290 290 289 289 288 288
290 290 290 290 290 291 291 291 292 292 292 292 293 294 294 293 294 294 294 294 292 292 292 292 292 291 291 291 290 290 291 291 291 291 291 291 290 290 290 290 290 290 290 290 291 291 291 291 291 290 290 289 289 289
287 285 286 291 290 290 291 291 291 291 292 292 293 293 293 293 293 293 292 292 292 292 291 291 291 290 289 289 290 290 290 290 290 290 291 291 291 291 291 290 290 290 289 289 290 291 291 291 290 290 290 290 290 289
283 283 286 288 291 291 291 290 291 290 290 291 291 292 292 292 290 290 290 289 289 288 288 288 288 288 288 288 289 290 290 289 289 289 290 291 291 291 290 290 290 290 290 290 290 291 291 290 289 289 289 289 289 289
282 284 287 287 290 289 288 288 288 288 289 289 289 290 291 289 288 287 287 287 287 287 287 287 286 287 287 287 288 288 288 289 288 288 288 289 289 290 289 290 290 290 290 289 290 290 289 289 289 289 288 288 288 287
282 283 283 285 287 287 288 288 289 290 290 290 290 288 289 289 290 286 285 286 286 285 286 286 286 286 286 286 287 287 287 288 288 288 288 288 287 287 288 289 289 290 290 290 290 289 289 288 288 288 288 288 287 287
281 283 283 283 284 285 285 286 289 289 290 290 289 288 288 289 288 285 285 284 284 284 285 285 285 286 285 286 286 286 287 287 287 287 287 287 287 287 287 287 288 289 289 290 290 290 289 289 288 287 287 287 286 286
Wind_Speed
12 13 15 15 13 13 15 16 14 14 11 12 14 13 13 12 13 8 7 8 5 4 9 7 6 10 11 12 6 11 8 7 8 6 6 8 9 9 14 15 17 16 14 13 14 18 19 19 21 12 13 19 17 14
13 13 13 13 14 14 16 16 15 15 13 13 15 13 13 11 10 11 5 4 6 5 5 6 8 9 8 5 7 13 4 5 9 5 7 6 11 11 15 15 17 16 16 13 16 13 17 12 9 12 19 16 19 18
13 14 14 17 14 15 16 16 16 15 15 14 14 12 11 10 8 10 5 3 4 2 3 7 10 12 13 14 11 9 15 11 14 11 8 6 13 10 12 15 20 18 22 12 15 17 21 30 21 23 26 30 27 21
13 14 16 16 17 17 18 18 17 17 16 15 14 12 10 8 7 7 4 2 2 1 2 1 4 10 11 15 17 18 19 12 15 15 12 8 10 12 12 15 15 17 17 16 19 20 23 30 26 21 27 28 28 23
12 12 14 19 19 18 18 19 19 17 17 17 16 14 11 9 6 2 5 7 6 2 3 6 10 16 14 15 19 20 22 22 21 15 10 11 20 16 16 15 17 19 21 14 17 23 24 25 30 26 28 27 25 17
14 16 13 11 16 18 20 19 20 19 18 22 18 16 12 10 7 3 2 6 9 10 1 3 4 13 14 19 20 20 23 24 25 21 13 22 25 14 8 16 28 33 37 38 32 33 35 32 33 31 27 26 20 16
16 13 14 16 15 15 15 20 19 22 18 18 19 15 12 11 10 5 3 4 8 12 3 3 4 3 7 15 18 21 24 24 25 24 25 24 22 24 14 20 26 30 29 24 26 24 28 31 29 25 25 23 13 10
16 15 10 11 15 14 13 15 21 16 15 16 15 13 11 10 12 12 14 12 7 4 4 3 4 7 7 8 8 14 16 14 11 13 12 19 22 22 12 25 34 35 34 34 35 35 38 34 25 28 16 11 7 11
14 15 14 14 13 15 16 17 17 17 16 14 13 10 6 6 7 11 12 15 21 13 4 6 7 2 7 6 7 6 7 5 8 8 14 8 7 10 13 20 27 26 23 27 27 28 25 22 18 17 13 9 11 11
16 15 16 16 17 17 17 17 17 16 15 13 9 4 5 8 9 7 8 7 6 9 7 4 7 5 5 5 5 5 8 4 4 9 12 12 16 32 34 32 27 24 25 21 17 16 14 12 13 14 15 13 12 10
17 17 17 17 18 17 17 17 17 16 13 6 6 5 4 13 8 4 3 6 8 4 8 10 18 12 6 4 3 4 2 4 3 4 6 5 7 15 29 38 37 32 25 22 17 15 11 11 11 11 9 7 7 7
17 18 17 16 17 17 17 16 15 12 7 7 5 6 9 5 4 3 3 3 5 4 5 4 3 3 4 3 3 4 3 4 3 9 4 3 1 3 4 4 7 17 18 19 18 17 13 11 9 8 8 8 8 10
18 16 15 16 16 13 11 12 12 12 9 9 4 4 5 4 5 5 6 4 3 5 4 4 3 4 3 3 3 3 3 4 1 2 3 3 6 1 2 2 2 6 10 14 15 15 15 8 7 9 10 10 9 8
16 14 13 18 18 12 10 12 17 15 4 3 4 5 5 5 5 5 5 1 2 3 4 4 3 5 4 3 2 3 2 2 4 3 4 2 5 4 4 4 3 3 5 4 6 11 15 14 12 10 8 8 8 10
13 10 9 11 12 10 10 9 8 9 4 3 3 4 6 7 3 2 4 3 4 4 5 3 6 6 4 3 3 3 3 4 5 3 2 6 5 6 6 7 9 9 7 3 5 9 11 11 10 11 10 9 9 10
12 10 11 10 10 11 14 12 9 4 2 3 5 4 8 4 6 7 7 8 7 6 4 5 3 3 5 3 4 6 3 4 1 2 3 2 4 6 6 6 5 4 3 2 2 5 8 10 10 10 10 10 11 10
12 8 11 14 14 13 15 10 8 4 4 4 5 11 13 9 6 2 6 7 7 7 4 4 4 6 2 3 4 3 3 2 3 2 1 1 5 7 6 4 2 1 1 2 5 8 9 8 8 9 10 11 11 9
15 13 15 13 18 14 11 8 4 6 7 10 6 8 11 10 6 6 5 5 7 7 4 2 5 3 4 3 2 1 1 2 1 2 1 1 4 6 5 4 2 0 1 3 5 7 8 10 9 7 8 9 9 9
3 5 10 19 22 12 8 8 6 4 10 5 10 10 8 6 7 6 7 6 6 3 3 3 4 4 3 3 3 3 3 2 1 1 1 3 4 5 6 8 6 4 4 5 7 6 6 7 6 7 7 7 8 10
6 6 6 14 24 8 5 6 9 5 4 5 7 8 6 5 4 6 7 9 9 4 5 4 4 5 2 1 2 2 1 1 1 3 4 3 4 6 9 10 6 7 7 7 6 7 6 6 6 8 7 9 10 11
4 5 9 12 21 9 3 3 6 5 4 5 4 6 5 5 6 7 7 10 11 5 4 8 10 9 6 4 3 3 3 3 3 5 6 4 4 4 6 8 10 9 8 8 8 7 9 8 8 9 12 12 13 11
4 9 6 12 4 4 5 5 4 2 4 3 4 5 4 4 6 7 6 10 8 13 14 10 7 6 6 6 6 6 5 6 6 5 5 3 3 4 7 9 11 11 11 11 9 11 10 10 11 10 10 11 12 13
8 9 5 7 5 3 3 3 4 4 3 3 3 3 3 3 3 3 4 9 9 7 7 7 6 6 5 6 5 4 4 3 4 6 6 6 5 6 6 9 11 14 12 10 9 11 11 11 11 11 11 11 12 12
11 5 4 5 9 4 4 5 5 4 3 3 3 2 1 2 3 4 5 8 4 3 3 4 4 5 4 3 4 4 4 3 5 6 8 8 9 8 8 9 11 13 13 10 12 12 13 14 13 13 14 12 12 12
5 6 5 5 6 6 5 4 4 3 3 5 2 3 1 3 2 3 4 2 3 2 1 0 2 3 4 4 3 4 7 6 7 8 7 8 9 9 8 9 11 12 13 14 15 16 15 15 16 16 16 14 13 12
6 6 5 5 5 5 6 4 6 6 5 3 4 1 2 2 3 4 1 3 5 4 3 4 3 3 1 2 3 4 5 6 8 9 8 7 9 12 13 12 12 14 16 15 18 18 18 17 18 18 18 17 16 15
4 4 5 3 2 3 2 2 3 3 4 5 3 4 4 4 5 2 2 4 7 7 5 4 4 3 4 4 4 5 6 6 7 8 6 5 7 9 11 12 13 11 13 14 17 19 20 20 20 19 19 18 18 18
5 9 3 5 4 6 4 3 5 5 5 6 3 6 3 4 1 3 2 4 7 6 1 4 6 8 9 10 11 11 9 8 8 9 10 11 10 9 9 10 12 11 12 12 12 15 19 21 20 20 20 20 19 19
5 18 13 4 6 5 6 4 4 5 1 4 3 3 2 2 4 6 4 2 1 5 8 10 9 14 14 14 13 11 10 9 8 9 10 12 12 11 8 9 10 12 12 12 13 13 14 17 18 16 17 18 20 18
8 18 7 5 3 5 2 1 2 1 0 2 2 2 4 3 3 3 3 4 3 4 5 6 8 8 8 9 9 7 7 8 9 11 12 11 7 8 10 12 12 11 10 10 10 14 15 15 14 15 15 15 17 18
13 12 5 6 4 6 6 5 2 3 2 2 5 4 3 4 5 7 9 10 9 8 8 9 9 9 9 10 10 9 7 5 5 6 7 9 12 14 12 11 8 9 11 10 11 12 13 14 16 17 16 17 16 17
12 8 9 5 7 11 7 8 3 3 6 7 6 4 4 5 5 4 8 9 9 12 13 13 13 12 9 7 8 9 9 10 12 11 10 11 12 13 13 11 10 11 12 13 14 15 13 12 12 15 16 17 15 15
18 11 10 10 6 9 10 10 3 3 3 1 3 3 3 5 6 4 7 10 9 11 15 14 12 11 9 9 8 9 10 11 12 12 12 13 12 11 11 12 11 12 12 12 15 16 18 16 13 13 13 14 13 13
Wind_Direction
168 167 169 172 175 168 171 167 163 156 153 154 155 157 152 149 140 124 125 129 139 132 161 180 166 174 173 191 181 166 171 197 187 215 235 234 241 246 268 255 252 251 244 230 232 244 260 264 284 273 310 313 303 310
181 179 186 182 182 173 172 172 171 167 162 158 159 158 155 149 141 117 112 108 111 118 117 189 209 207 201 201 234 170 202 174 199 228 233 252 251 255 250 256 241 246 257 267 264 264 270 286 276 272 288 296 301 283
193 199 200 188 182 181 177 175 176 174 170 164 163 163 156 151 137 115 126 137 71 48 269 222 236 235 225 220 218 244 218 225 221 221 269 288 260 273 262 251 258 260 255 243 255 263 268 274 301 302 296 291 275 275
199 200 200 203 191 189 188 186 185 178 179 180 176 174 173 168 157 141 151 160 147 91 298 16 229 227 229 226 225 227 238 248 240 244 239 247 259 256 263 279 279 272 291 281 271 269 282 281 284 296 307 307 287 261
198 197 202 206 195 191 192 192 193 192 192 193 188 184 185 192 198 205 238 233 207 239 330 301 282 253 241 230 232 231 228 231 235 230 237 241 249 259 263 268 258 248 251 254 261 268 270 282 292 292 296 282 285 253
197 190 182 186 193 195 199 189 194 200 204 206 191 192 197 204 206 193 300 250 235 210 244 277 288 264 239 231 231 229 227 228 230 229 235 244 244 251 254 247 255 253 255 257 266 269 272 278 278 281 280 275 277 251
195 204 192 185 189 184 183 189 192 202 187 174 182 196 207 201 191 190 239 191 163 197 192 266 260 236 214 219 226 229 227 225 227 232 232 243 248 231 248 257 259 265 269 265 262 265 275 265 285 285 273 259 247 216
187 192 179 164 180 175 168 165 159 162 161 166 175 183 191 202 207 233 236 250 210 207 198 253 255 215 192 205 212 230 228 222 217 228 236 230 247 249 251 252 258 260 260 261 261 262 263 268 264 277 255 220 217 224
172 177 180 170 152 150 156 150 151 157 157 158 164 172 175 217 228 242 246 250 250 203 225 220 242 264 173 217 193 192 207 212 212 220 228 232 216 227 244 250 250 258 263 266 264 262 256 249 244 249 255 234 241 249
162 163 162 162 160 158 153 154 157 158 162 164 151 176 216 217 213 173 174 172 165 199 236 255 239 248 216 256 188 209 191 223 210 221 220 224 246 250 252 253 257 256 260 271 294 250 238 241 239 239 248 246 251 246
154 155 157 157 156 158 161 162 161 163 160 173 191 211 162 147 147 188 218 192 186 213 211 239 237 253 247 245 271 234 244 179 242 165 197 219 241 241 252 245 247 252 257 264 272 255 244 239 242 237 230 224 214 192
156 154 156 161 161 161 164 165 168 169 186 188 189 146 156 189 208 214 213 204 228 241 176 221 228 225 250 239 263 230 250 214 277 152 227 255 309 356 345 354 240 245 253 253 251 247 240 252 242 224 193 188 174 178
158 156 156 152 156 153 174 185 194 203 179 168 169 168 190 174 225 220 197 213 215 182 201 204 203 189 201 220 260 287 250 250 27 232 253 278 83 49 342 317 265 268 259 251 243 229 222 209 205 184 174 193 200 200
163 160 161 169 177 171 175 193 203 188 199 203 173 178 222 177 233 212 250 142 116 148 150 196 242 208 163 190 248 251 258 286 256 236 238 31 83 120 98 77 115 90 134 134 160 181 193 198 195 189 185 189 189 186
164 158 157 168 180 183 181 196 168 168 173 195 211 232 220 234 270 277 231 244 226 194 179 245 255 230 171 211 212 261 229 240 236 251 33 57 109 135 114 95 85 76 74 104 161 169 166 165 166 163 165 174 181 186
167 171 193 190 198 187 180 188 190 212 161 207 227 243 242 253 228 199 219 243 228 180 183 240 257 221 214 208 187 222 242 242 338 45 40 62 141 141 145 132 102 92 78 63 176 175 162 156 161 162 168 172 174 181
196 206 231 222 211 183 173 184 183 204 227 220 237 237 259 295 303 265 225 241 188 168 220 217 225 224 176 222 219 223 228 346 26 345 289 255 169 178 172 168 142 148 30 184 174 170 169 161 159 158 169 172 178 185
196 204 191 175 174 170 187 208 208 218 229 227 236 229 211 231 245 253 244 207 200 215 242 266 313 240 234 236 247 332 275 198 215 249 256 225 186 188 189 211 211 165 41 170 176 170 161 151 141 146 169 180 185 183
235 300 197 187 169 171 190 205 228 243 221 231 233 247 236 240 239 256 277 250 224 207 279 259 255 240 232 245 311 289 276 258 292 274 272 276 219 226 227 250 250 228 198 162 151 153 161 163 173 177 180 184 183 190
215 228 240 188 174 178 214 208 187 244 232 215 221 231 223 222 200 205 213 207 211 209 217 223 239 302 311 289 307 319 336 213 262 312 315 287 261 268 242 238 217 198 188 181 187 198 198 196 200 203 194 194 197 196
206 212 214 205 203 221 276 192 189 224 244 233 204 216 232 213 229 215 222 208 208 220 234 246 261 274 278 289 306 298 286 262 257 272 301 272 244 256 223 204 207 198 200 201 207 217 211 212 210 208 215 208 198 198
203 161 162 188 247 217 238 234 265 208 228 240 215 222 237 210 225 223 223 213 235 237 248 270 274 275 280 286 289 277 262 260 254 260 259 229 229 232 219 208 208 215 211 213 212 223 219 207 218 213 209 203 199 199
177 181 194 186 218 233 249 208 226 224 235 228 205 236 230 217 222 183 232 227 237 243 237 246 261 275 269 277 276 264 260 246 259 260 251 249 252 242 226 224 218 223 215 216 217 221 215 212 214 208 204 200 191 195
176 186 217 209 206 187 182 199 220 246 247 239 231 252 243 227 190 245 256 254 198 169 229 257 258 256 269 249 239 241 261 292 287 278 262 252 253 248 237 234 233 227 227 224 214 209 205 201 205 198 207 195 195 200
179 200 232 203 195 174 198 201 205 231 231 218 250 259 179 194 238 247 250 253 166 154 126 305 251 242 253 267 265 243 252 259 277 285 281 262 251 250 224 236 241 240 231 222 217 213 210 205 207 204 206 206 206 202
216 190 215 206 167 209 186 203 201 222 240 237 244 238 180 228 244 243 239 160 149 140 111 89 52 52 39 338 313 302 301 279 272 274 275 265 264 258 257 247 241 248 239 230 225 222 220 217 215 213 214 217 217 212
225 177 195 224 208 193 187 208 202 221 206 214 225 187 194 219 225 197 153 164 150 137 111 80 59 24 350 331 316 305 298 283 270 268 273 281 282 268 259 260 253 251 261 255 236 232 229 227 227 225 223 224 224 222
346 22 321 191 213 222 230 218 208 217 222 218 215 199 216 205 204 113 127 146 158 163 189 322 321 309 305 300 302 305 303 297 285 275 275 271 275 278 268 261 261 265 263 267 244 236 234 231 232 231 229 229 231 230
341 353 330 233 215 214 228 228 236 226 262 225 235 220 204 101 83 99 88 88 223 270 286 293 295 292 298 295 295 295 291 279 277 273 278 278 275 283 282 278 275 265 273 255 243 236 234 233 227 230 237 239 239 236
317 335 307 287 247 222 218 216 323 124 156 260 284 246 203 135 64 41 338 314 321 348 3 358 349 344 339 327 321 311 299 297 271 264 270 281 297 279 292 291 280 259 258 250 242 225 215 221 226 227 227 227 227 231
299 303 292 311 301 40 3 345 304 276 266 258 256 268 311 94 82 68 79 74 59 53 44 27 17 6 2 359 351 339 334 333 333 328 318 296 283 282 292 272 270 249 241 241 237 235 236 238 236 235 235 234 235 238
310 326 322 294 329 330 337 350 305 249 184 200 179 173 172 171 125 74 44 54 38 34 27 19 9 356 355 349 353 345 320 313 307 295 291 299 303 296 286 278 266 255 247 244 243 239 237 239 239 238 242 242 246 240
302 310 354 334 327 335 335 329 278 344 217 180 92 70 59 29 77 84 44 33 37 19 17 15 14 18 9 354 348 342 338 328 318 314 304 298 293 289 284 278 271 263 257 251 248 248 245 241 242 241 240 242 245 232